Location: Oshawa
(43.9000°N, 78.8670°W)
Time: 01:30:00
(UTC-04:00)

PAYLOAD A - Visible Passes

Search period start: 18 April 2014 00:00
Search period end: 28 April 2014 00:00
Orbit: 692 x 833 km, 98.2° (Epoch: 17 April)

Date Brightness Start Highest point End Pass type
(mag) Time Alt. Az. Time Alt. Az. Time Alt. Az.
18 Apr 7.1 21:53:19 10° W 21:53:29 10° W 21:53:39 10° W visible
19 Apr 6.2 21:11:43 10° SSW 21:15:32 24° W 21:19:27 10° NW visible
20 Apr 4.7 20:33:10 10° S 20:37:48 54° W 20:42:37 10° NNW visible
21 Apr 6.7 21:37:18 10° WSW 21:39:49 14° W 21:42:24 10° WNW visible
22 Apr 5.7 20:57:42 10° SSW 21:01:57 32° W 21:06:21 10° NNW visible
24 Apr 6.5 21:22:46 10° SW 21:26:11 19° W 21:29:43 10° NW visible
25 Apr 5.2 20:43:50 10° S 20:48:24 43° W 20:53:09 10° NNW visible
26 Apr 6.9 21:49:05 10° WSW 21:50:32 11° W 21:51:59 10° WNW visible
27 Apr 6.1 21:08:34 10° SSW 21:12:35 26° W 21:16:45 10° NW visible
